FW8483 Weather Reports


time (UTC)temp
C
wind
direction
speed
KPH
gust
KPH
rain 1hr
cm
rain 24hr
cm
rain mn
cm
humidity
%
barometer
mb
20260505125005 15 90 1.6 4.8 0.00 0.00 0.00 82 1016.2
20260505124519 15 49 0.0 4.8 0.00 0.00 0.00 83 1016.3
20260505124005 15 166 0.0 0.0 0.00 0.00 0.00 84 1016.4
20260505123505 13 126 0.0 0.0 0.00 0.00 0.00 86 1016.4
20260505123023 13 139 0.0 0.0 0.00 0.00 0.00 87 1016.5
20260505122507 13 82 0.0 0.0 0.00 0.00 0.00 90 1016.3
20260505122011 12 139 0.0 0.0 0.00 0.00 0.00 90 1016.2
20260505121503 12 120 0.0 0.0 0.00 0.00 0.00 92 1016.2
20260505121003 11 345 0.0 0.0 0.00 0.00 0.00 93 1016.2
20260505120503 11 352 0.0 1.6 0.00 0.00 0.00 93 1016.1
20260505120033 11 352 0.0 1.6 0.00 0.00 0.00 92 1016.1
20260505115502 11 176 0.0 1.6 0.00 0.00 0.00 93 1015.9
20260505115003 10 25 0.0 0.0 0.00 0.00 0.00 93 1015.9
20260505114515 10 334 0.0 0.0 0.00 0.00 0.00 93 1015.8
20260505114004 10 9 0.0 1.6 0.00 0.00 0.00 94 1015.8
20260505113506 10 304 0.0 1.6 0.00 0.00 0.00 93 1015.7
20260505113020 10 304 0.0 1.6 0.00 0.00 0.00 94 1015.7
20260505112506 10 315 0.0 0.0 0.00 0.00 0.00 94 1015.7
20260505112007 10 87 0.0 0.0 0.00 0.00 0.00 95 1015.6
20260505111526 10 84 0.0 0.0 0.00 0.00 0.00 95 1015.5
20260505111009 9 94 0.0 0.0 0.00 0.00 0.00 95 1015.5
20260505110502 9 97 0.0 0.0 0.00 0.00 0.00 95 1015.4
20260505102010 8 74 0.0 0.0 0.00 0.00 0.00 95 1015.2
20260505101526 8 113 0.0 0.0 0.00 0.00 0.00 94 1015.1
20260505101010 8 113 0.0 0.0 0.00 0.00 0.00 94 1015.3
20260505100508 8 113 0.0 0.0 0.00 0.00 0.00 94 1015.1
20260505100028 8 113 0.0 0.0 0.00 0.00 0.00 94 1015.1
20260505095504 8 113 0.0 0.0 0.00 0.00 0.00 94 1015.1
20260505095003 8 113 0.0 0.0 0.00 0.00 0.00 94 1015.0
20260505094511 8 113 0.0 0.0 0.00 0.00 0.00 94 1015.0
20260505094003 8 113 0.0 0.0 0.00 0.00 0.00 95 1015.1
20260505093503 8 113 0.0 0.0 0.00 0.00 0.00 95 1015.0
20260505093017 8 113 0.0 0.0 0.00 0.00 0.00 94 1015.0
20260505092504 8 113 0.0 0.0 0.00 0.00 0.00 93 1014.7
20260505092007 8 113 0.0 0.0 0.00 0.00 0.00 93 1014.6
20260505091527 9 113 0.0 0.0 0.00 0.00 0.00 93 1014.4
20260505091009 9 113 0.0 0.0 0.00 0.00 0.00 94 1014.4
20260505090507 9 113 0.0 0.0 0.00 0.00 0.00 94 1014.3
20260505090039 9 113 0.0 0.0 0.00 0.00 0.00 96 1014.4
20260505085512 9 113 0.0 0.0 0.00 0.00 0.00 95 1014.3
20260505085008 8 113 0.0 0.0 0.00 0.00 0.00 94 1014.2
20260505084512 8 113 0.0 0.0 0.00 0.00 0.00 94 1014.2
20260505084004 8 113 0.0 0.0 0.00 0.00 0.00 93 1014.3
20260505083507 8 113 0.0 0.0 0.00 0.00 0.00 93 1014.2
20260505083017 8 180 0.0 0.0 0.00 0.00 0.00 93 1014.3
20260505082504 9 180 0.0 0.0 0.00 0.00 0.00 94 1014.3
20260505082007 9 180 0.0 0.0 0.00 0.00 0.00 94 1014.2
20260505081521 8 180 0.0 0.0 0.00 0.00 0.00 94 1014.3
20260505081007 8 180 0.0 0.0 0.00 0.00 0.00 93 1014.4
20260505080507 9 180 0.0 0.0 0.00 0.00 0.00 93 1014.3
20260505080023 9 180 0.0 0.0 0.00 0.00 0.00 93 1014.2
20260505075509 9 180 0.0 0.0 0.00 0.00 0.00 93 1014.2
20260505075006 9 180 0.0 0.0 0.00 0.00 0.00 94 1014.3
20260505074528 9 180 0.0 0.0 0.00 0.00 0.00 93 1014.2
20260505074011 9 180 0.0 0.0 0.00 0.00 0.00 93 1014.4
20260505073505 9 180 0.0 0.0 0.00 0.00 0.00 93 1014.5
20260505073024 9 180 0.0 0.0 0.00 0.00 0.00 93 1014.5
20260505072505 9 180 0.0 0.0 0.00 0.00 0.00 93 1014.4
20260505072005 9 180 0.0 0.0 0.00 0.00 0.00 93 1014.3
20260505071519 9 180 0.0 0.0 0.00 0.00 0.00 93 1014.4
20260505071006 9 180 0.0 0.0 0.00 0.00 0.00 92 1014.4
20260505070510 9 180 0.0 0.0 0.00 0.00 0.00 92 1014.4
20260505070024 9 180 0.0 0.0 0.00 0.00 0.00 92 1014.5
20260505065508 10 180 0.0 0.0 0.00 0.00 0.00 91 1014.4
20260505065008 10 180 0.0 0.0 0.00 0.00 0.00 91 1014.5
20260505064537 10 180 0.0 0.0 0.00 0.00 0.00 91 1014.6
20260505064008 10 180 0.0 0.0 0.00 0.00 0.00 91 1014.7
20260505063509 10 180 0.0 0.0 0.00 0.00 0.00 91 1014.7
20260505063029 10 180 0.0 0.0 0.00 0.00 0.00 91 1014.6
20260505062504 10 180 0.0 0.0 0.00 0.00 0.00 90 1014.8
20260505062011 10 180 0.0 0.0 0.00 0.00 0.00 91 1014.9
20260505061530 10 180 0.0 0.0 0.00 0.00 0.00 91 1014.7
20260505061004 10 180 0.0 0.0 0.00 0.00 0.00 91 1014.9
20260505060507 10 180 0.0 0.0 0.00 0.00 0.00 90 1015.0
20260505060023 10 180 0.0 0.0 0.00 0.00 0.00 89 1014.8
20260505055512 10 180 0.0 0.0 0.00 0.00 0.00 90 1014.9
20260505055010 10 180 0.0 0.0 0.00 0.00 0.00 89 1014.9
20260505054539 11 180 0.0 0.0 0.00 0.00 0.00 88 1015.0
20260505054007 11 180 0.0 0.0 0.00 0.00 0.00 88 1015.1
20260505053507 11 180 0.0 0.0 0.00 0.00 0.00 88 1015.1
20260505053010 11 180 0.0 0.0 0.00 0.00 0.00 88 1015.2
20260505052503 11 180 0.0 0.0 0.00 0.00 0.00 87 1015.1
20260505052003 11 180 0.0 0.0 0.00 0.00 0.00 86 1015.3
20260505051513 11 180 0.0 0.0 0.00 0.00 0.00 86 1015.3
20260505051009 11 180 0.0 0.0 0.00 0.00 0.00 86 1015.3
20260505050503 11 180 0.0 0.0 0.00 0.00 0.00 86 1015.2
20260505041514 12 209 0.0 0.0 0.00 0.00 0.00 84 1015.4
20260505041005 12 209 0.0 0.0 0.00 0.00 0.00 83 1015.6
20260505040503 12 209 0.0 0.0 0.00 0.00 0.00 83 1015.5
20260505040021 12 209 0.0 0.0 0.00 0.00 0.00 83 1015.6
20260505035507 12 209 0.0 0.0 0.00 0.00 0.00 82 1015.6
20260505035007 12 209 0.0 0.0 0.00 0.00 0.00 79 1015.8
20260505034523 13 209 0.0 0.0 0.00 0.00 0.00 76 1015.7
20260505034009 13 209 0.0 0.0 0.00 0.00 0.00 76 1015.7
20260505033506 13 209 0.0 0.0 0.00 0.00 0.00 74 1015.8
20260505033024 14 209 0.0 0.0 0.00 0.00 0.00 73 1015.9
20260505032507 15 209 0.0 0.0 0.00 0.00 0.00 72 1015.8
20260505032003 15 209 0.0 0.0 0.00 0.00 0.00 72 1015.9
20260505031530 15 209 0.0 0.0 0.00 0.00 0.00 72 1015.9
20260505031002 15 209 0.0 0.0 0.00 0.00 0.00 69 1015.9
20260505030505 15 209 0.0 0.0 0.00 0.00 0.00 68 1016.0
20260505030017 15 209 0.0 0.0 0.00 0.00 0.00 67 1016.0
20260505025504 15 209 0.0 0.0 0.00 0.00 0.00 67 1016.0
20260505025004 15 209 0.0 0.0 0.00 0.00 0.00 67 1016.0
20260505024532 15 209 0.0 0.0 0.00 0.00 0.00 70 1016.2
20260505024006 15 209 0.0 0.0 0.00 0.00 0.00 67 1016.2
20260505023507 15 209 0.0 0.0 0.00 0.00 0.00 68 1016.3
20260505023028 15 209 0.0 0.0 0.00 0.00 0.00 68 1016.3
20260505022506 15 209 0.0 0.0 0.00 0.00 0.00 66 1016.2
20260505022011 16 209 0.0 0.0 0.00 0.00 0.00 64 1016.2
20260505021528 16 209 0.0 0.0 0.00 0.00 0.00 63 1016.2
20260505021004 16 209 0.0 0.0 0.00 0.00 0.00 63 1016.1
20260505020503 16 209 0.0 0.0 0.00 0.00 0.00 62 1016.2
20260505020026 17 209 0.0 0.0 0.00 0.00 0.00 62 1016.2
20260505015508 17 209 0.0 0.0 0.00 0.00 0.00 60 1016.1
20260505015006 17 209 0.0 0.0 0.00 0.00 0.00 58 1016.1
20260505014527 17 209 0.0 0.0 0.00 0.00 0.00 57 1016.1
20260505014008 17 209 0.0 0.0 0.00 0.00 0.00 57 1016.0
20260505013514 17 209 0.0 0.0 0.00 0.00 0.00 56 1015.9
20260505013025 18 209 0.0 0.0 0.00 0.00 0.00 56 1015.8
20260505012507 18 209 0.0 3.2 0.00 0.00 0.00 56 1015.7
20260505012007 18 209 0.0 3.2 0.00 0.00 0.00 55 1015.7
20260505011533 18 161 0.0 1.6 0.00 0.00 0.00 54 1015.8
20260505011010 18 209 0.0 3.2 0.00 0.00 0.00 54 1015.8
20260505010513 19 209 0.0 4.8 0.00 0.00 0.00 53 1015.6
20260505010014 19 211 1.6 4.8 0.00 0.00 0.00 52 1015.6
20260505005504 19 196 0.0 3.2 0.00 0.00 0.00 52 1015.6
20260505005007 20 237 0.0 4.8 0.00 0.00 0.00 50 1015.5
20260505004539 20 217 0.0 4.8 0.00 0.00 0.00 50 1015.5
20260505004006 20 206 0.0 0.0 0.00 0.00 0.00 49 1015.6
20260505003506 20 206 0.0 0.0 0.00 0.00 0.00 48 1015.4
20260505003022 21 227 0.0 1.6 0.00 0.00 0.00 47 1015.4
20260505002511 21 227 0.0 4.8 0.00 0.00 0.00 46 1015.3
20260505002022 21 250 0.0 8.0 0.00 0.00 0.00 45 1015.2
20260505001525 21 234 0.0 8.0 0.00 0.00 0.00 44 1015.2
20260505001010 22 269 1.6 8.0 0.00 0.00 0.00 44 1015.1
20260505000508 22 263 1.6 8.0 0.00 0.00 0.00 43 1015.0
20260505000039 22 223 0.0 11.3 0.00 0.00 0.00 42 1015.0
20260504235507 22 252 4.8 12.9 0.00 0.00 0.00 42 1014.9
20260504235004 23 197 4.8 12.9 0.00 0.00 0.00 41 1015.0
20260504234514 23 111 3.2 9.7 0.00 0.00 0.00 41 1015.0
20260504234003 23 17 1.6 14.5 0.00 0.00 0.00 41 1015.0
20260504233508 24 208 3.2 14.5 0.00 0.00 0.00 40 1014.9
20260504233020 24 165 4.8 11.3 0.00 0.00 0.00 39 1014.8
20260504232507 25 264 3.2 9.7 0.00 0.00 0.00 40 1014.6
20260504232007 25 203 4.8 9.7 0.00 0.00 0.00 38 1014.5
20260504231522 25 103 0.0 9.7 0.00 0.00 0.00 38 1014.5
20260504231010 25 267 3.2 14.5 0.00 0.00 0.00 38 1014.4
20260504230507 25 222 4.8 14.5 0.00 0.00 0.00 37 1014.5
20260504230026 26 253 4.8 14.5 0.00 0.00 0.00 37 1014.4
20260504225509 26 180 4.8 12.9 0.00 0.00 0.00 36 1014.5
20260504225010 26 213 4.8 12.9 0.00 0.00 0.00 37 1014.4
20260504224527 26 248 4.8 12.9 0.00 0.00 0.00 36 1014.5
20260504224003 26 223 4.8 11.3 0.00 0.00 0.00 35 1014.5
20260504223507 26 207 3.2 14.5 0.00 0.00 0.00 35 1014.4
20260504223019 26 249 4.8 14.5 0.00 0.00 0.00 37 1014.5
20260504222507 26 213 4.8 12.9 0.00 0.00 0.00 35 1014.5
20260504222007 27 216 4.8 8.0 0.00 0.00 0.00 34 1014.5
20260504221523 27 298 3.2 9.7 0.00 0.00 0.00 32 1014.6
20260504221008 27 288 4.8 9.7 0.00 0.00 0.00 31 1014.7
20260504220507 27 21 0.0 6.4 0.00 0.00 0.00 31 1014.6
20260504220024 27 44 3.2 6.4 0.00 0.00 0.00 30 1014.5
20260504215508 27 352 3.2 6.4 0.00 0.00 0.00 29 1014.5
20260504215008 27 298 0.0 6.4 0.00 0.00 0.00 30 1014.5
20260504214529 26 190 1.6 6.4 0.00 0.00 0.00 30 1014.5
20260504214011 26 280 3.2 6.4 0.00 0.00 0.00 30 1014.5
20260504213508 26 41 1.6 6.4 0.00 0.00 0.00 30 1014.5
20260504213017 26 70 0.0 6.4 0.00 0.00 0.00 30 1014.4
20260504212505 26 69 3.2 6.4 0.00 0.00 0.00 30 1014.4
20260504212008 27 271 3.2 9.7 0.00 0.00 0.00 30 1014.5
20260504211521 26 284 3.2 9.7 0.00 0.00 0.00 31 1014.6
20260504211008 26 229 1.6 4.8 0.00 0.00 0.00 31 1014.6
20260504210508 27 90 1.6 12.9 0.00 0.00 0.00 29 1014.5
20260504210027 27 176 1.6 12.9 0.00 0.00 0.00 30 1014.6
20260504205508 27 177 4.8 11.3 0.00 0.00 0.00 30 1014.6
20260504205007 27 104 0.0 6.4 0.00 0.00 0.00 30 1014.7
20260504204526 26 281 3.2 8.0 0.00 0.00 0.00 30 1014.9
20260504204008 26 188 3.2 8.0 0.00 0.00 0.00 30 1014.8
20260504203509 26 250 1.6 9.7 0.00 0.00 0.00 30 1014.9
20260504203014 26 215 3.2 14.5 0.00 0.00 0.00 31 1015.0
20260504202511 26 166 8.0 14.5 0.00 0.00 0.00 32 1015.0
20260504202007 26 53 6.4 14.5 0.00 0.00 0.00 30 1015.1
20260504201520 26 205 4.8 9.7 0.00 0.00 0.00 32 1015.1
20260504201002 26 255 1.6 9.7 0.00 0.00 0.00 30 1015.4
20260504200502 26 99 4.8 9.7 0.00 0.00 0.00 32 1015.5
20260504200007 26 95 3.2 11.3 0.00 0.00 0.00 33 1015.6
20260504195502 26 121 6.4 12.9 0.00 0.00 0.00 31 1015.6
20260504195003 26 129 8.0 12.9 0.00 0.00 0.00 31 1015.7
20260504194509 26 152 4.8 19.3 0.00 0.00 0.00 30 1015.7
20260504194004 26 179 11.3 19.3 0.00 0.00 0.00 30 1015.8
20260504193505 26 267 4.8 19.3 0.00 0.00 0.00 31 1015.8
20260504193014 25 158 4.8 9.7 0.00 0.00 0.00 32 1015.9
20260504192504 25 241 1.6 6.4 0.00 0.00 0.00 30 1016.0
20260504192006 26 256 3.2 11.3 0.00 0.00 0.00 31 1016.2
20260504191518 26 217 4.8 9.7 0.00 0.00 0.00 30 1016.2
20260504191005 26 207 3.2 9.7 0.00 0.00 0.00 33 1016.2
20260504190511 25 176 1.6 12.9 0.00 0.00 0.00 34 1016.3
20260504190003 25 269 4.8 12.9 0.00 0.00 0.00 34 1016.4
20260504185502 25 127 4.8 12.9 0.00 0.00 0.00 32 1016.5
20260504185002 25 186 8.0 12.9 0.00 0.00 0.00 33 1016.6
20260504184508 25 178 8.0 11.3 0.00 0.00 0.00 31 1016.6
20260504184004 25 207 4.8 14.5 0.00 0.00 0.00 33 1016.6
20260504183504 25 165 8.0 14.5 0.00 0.00 0.00 33 1016.7
20260504183014 25 210 1.6 8.0 0.00 0.00 0.00 34 1016.7
20260504182504 25 277 4.8 9.7 0.00 0.00 0.00 33 1016.7
20260504182003 25 155 4.8 12.9 0.00 0.00 0.00 36 1016.8
20260504181518 24 100 3.2 12.9 0.00 0.00 0.00 35 1017.0
20260504181007 24 113 3.2 11.3 0.00 0.00 0.00 36 1016.9
20260504180508 24 103 4.8 11.3 0.00 0.00 0.00 33 1016.9
20260504180023 24 129 1.6 11.3 0.00 0.00 0.00 35 1017.0
20260504175508 24 149 3.2 9.7 0.00 0.00 0.00 36 1017.1
20260504175003 24 155 4.8 14.5 0.00 0.00 0.00 34 1017.1
20260504174504 24 138 9.7 14.5 0.00 0.00 0.00 34 1017.1
20260504174003 23 125 3.2 6.4 0.00 0.00 0.00 34 1017.2
20260504173503 24 116 3.2 8.0 0.00 0.00 0.00 35 1017.3
20260504173009 23 155 4.8 8.0 0.00 0.00 0.00 35 1017.3
20260504172504 23 319 1.6 14.5 0.00 0.00 0.00 35 1017.3
20260504172004 23 165 4.8 14.5 0.00 0.00 0.00 34 1017.4
20260504171514 23 141 3.2 11.3 0.00 0.00 0.00 37 1017.6
20260504171006 23 27 3.2 12.9 0.00 0.00 0.00 35 1017.6
20260504170509 23 342 4.8 12.9 0.00 0.00 0.00 37 1017.7
20260504151003 22 44 3.2 9.7 0.00 0.00 0.00 39 1018.5
20260504150507 22 13 4.8 12.9 0.00 0.00 0.00 39 1018.5
20260504141005 21 88 4.8 11.3 0.00 0.00 0.00 51 1018.6
20260504140502 20 84 3.2 6.4 0.00 0.00 0.00 53 1018.6
20260504130503 15 121 0.0 0.0 0.00 0.00 0.00 79 1018.5